Weather in Ekimchan

Russia / Amur Oblast     53°04′07″N   132°56′37″E
temp.,
°C
wind,
m/s
gust,
m/s
humid.,
%
clouds,
%
prec.,
mm/h
press.,
hPa
HPBL,
m
2 december, thu
thu200:00−32ene1110028 0.0 10119
03:00−32e1110077 0.0 10099
06:00−32e1110084 0.0 100810
09:00−30e119862 0.0 100630
12:00−21wsw11875 0.0 1001224
15:00−21w11925 0.0 10019
18:00−29ese111005 0.0 10059
21:00−31e1110012 0.0 10079
3 december, fri
fri300:00−32e1110055 0.0 10099
03:00−33e119935 0.0 101010
06:00−33e119936 0.0 101112
09:00−30e11977 0.0 101331
12:00−22ene01865 0.0 1010248
15:00−22sw00925 0.0 10119
18:00−29e11995 0.0 10189
21:00−32e111007 0.0 10219
4 december, sat
sat400:00−33e211005 0.0 102311
03:00−34e21997 0.0 102412
06:00−34e21997 0.0 102513
09:00−31e11965 0.0 102532
12:00−22sw11835 0.0 1021200
15:00−23wsw11925 0.0 102124
18:00−29se11998 0.0 10259
21:00−30sse11100100 0.0 10259
5 december, sun
sun500:00−24ssw1194100 0.0 102254
03:00−22ssw0199100 0.7 102187
06:00−20s1299100 0.4 1019131
09:00−19sse1297100 0.8 1019128
12:00−16ssw1390100 0.2 1017305
15:00−15sse1291100 0.3 1016282
18:00−16se129799 0.3 101790
21:00−16se1297100 0.6 101784
6 december, mon
mon600:00−16se1296100 0.3 101578
03:00−19ese1198100 0.3 101519
06:00−17se1197100 0.3 101447
09:00−15s1296100 0.8 101296
12:00−13wsw51093100 0.8 1011921
15:00−15wsw51094100 1.3 1013899
18:00−17wsw51295100 0.6 1015882
21:00−16wsw51096100 1.4 1016858